Regional Weather Roundup
Issued by NWS

Home | Current Version | Previous Version | Graphics & Text | Print | Product List | Glossary On
Versions: 1 2 3 4 5 6 7 8 9 10 11 12 13 14 15 16 17 18 19 20 21 22 23 24 25 26 27 28 29 30 31 32 33 34 35 36 37 38 39 40 41 42 43 44 45 46 47 48 49 50
000
ASUS43 KLMK 170302
RWRKY
KENTUCKY REGIONAL WEATHER ROUNDUP
NATIONAL WEATHER SERVICE LOUISVILLE KY
1100 PM EDT WED APR 16 2014

NOTE "FAIR" INDICATES FEW OR NO CLOUDS BELOW 12,000 FEET
WITH NO SIGNIFICANT WEATHER AND/OR OBSTRUCTIONS TO VISIBILITY.

KYZ001>023-026-027-061>063-070>075-170400-
WESTERN AND SOUTH CENTRAL KENTUCKY

CITY           SKY/WX    TMP DP  RH WIND       PRES   REMARKS
PADUCAH        PTCLDY    50  30  46 SE3       30.17R
HENDERSON      PTCLDY    46  28  49 E6        30.19S
OWENSBORO      MOCLDY    48  27  44 CALM      30.22R
HOPKINSVILLE   PTCLDY    48  30  49 E5        30.19R
BOWLING GREEN  MOCLDY    46  30  53 CALM      30.22R
GLASGOW        NOT AVBL
$$

KYZ024-025-028>034-038-045-046-053-170400-
NORTH CENTRAL KENTUCKY

CITY           SKY/WX    TMP DP  RH WIND       PRES   REMARKS
LOUISVILLE/SDF PTCLDY    49  25  39 E3        30.24R
LOUISVILLE/LOU PTCLDY    50  24  36 E5        30.24R
FORT KNOX      MOCLDY    45  27  49 NE5       30.22R
$$

KYZ035>037-039>044-047>052-055>060-089>105-170400-
NORTHEAST KENTUCKY

CITY           SKY/WX    TMP DP  RH WIND       PRES   REMARKS
LEXINGTON      MOCLDY    47  22  37 E8        30.24S
COVINGTON      PTCLDY    43  23  45 E7        30.26R
FRANKFORT      MOCLDY    42  25  50 E7        30.23S
$$

KYZ054-064>069-076>088-106>120-170400-
SOUTHEAST KENTUCKY

CITY           SKY/WX    TMP DP  RH WIND       PRES   REMARKS
JACKSON        PTCLDY    46  19  34 NE5       30.25R
LONDON         CLEAR     44  27  51 CALM      30.23S
SOMERSET       NOT AVBL
MIDDLESBORO    NOT AVBL
MONTICELLO     PTCLDY    38  30  73 CALM      30.24R
$$




USA.gov is the U.S. government's official web portal to all federal, state and local government web resources and services.